Time,TemperatureF,DewpointF,PressureIn,WindDirection,WindDirectionDegrees,WindSpeedMPH,WindSpeedGustMPH,Humidity,HourlyPrecipIn,Conditions,Clouds,dailyrainin,SolarRadiationWatts/m^2,SoftwareType,DateUTC
2013-01-23 00:02:00,-10.0,-19.0,-100.00,SW,233,3.0,5.0,63,0.00,,,0.00,0.000000,,2013-01-23 06:02:00,
2013-01-23 00:10:00,-11.0,-20.0,-100.00,SW,231,2.0,5.0,64,0.00,,,-99.99,0.000000,,2013-01-23 06:10:00,
2013-01-23 00:33:00,-11.0,-20.0,-100.00,SW,231,2.0,5.0,64,0.00,,,-99.99,0.000000,,2013-01-23 06:33:00,
2013-01-23 00:43:00,-11.0,-20.0,-100.00,SW,231,2.0,5.0,64,0.00,,,-99.99,0.000000,,2013-01-23 06:43:00,
2013-01-23 00:53:00,-11.0,-20.0,-100.00,SW,231,2.0,5.0,64,0.00,,,-99.99,0.000000,,2013-01-23 06:53:00,
2013-01-23 01:02:00,-11.0,-20.0,-100.00,SW,231,2.0,5.0,64,0.00,,,-99.99,0.000000,,2013-01-23 07:02:00,
2013-01-23 01:10:00,-16.0,-23.0,-100.00,WSW,237,1.0,5.0,69,0.00,,,-99.99,0.000000,,2013-01-23 07:10:00,
2013-01-23 01:33:00,-16.0,-23.0,-100.00,WSW,237,1.0,5.0,69,0.00,,,-99.99,0.000000,,2013-01-23 07:33:00,
2013-01-23 01:43:00,-16.0,-23.0,-100.00,WSW,237,1.0,5.0,69,0.00,,,-99.99,0.000000,,2013-01-23 07:43:00,
2013-01-23 01:53:00,-16.0,-23.0,-100.00,WSW,237,1.0,5.0,69,0.00,,,-99.99,0.000000,,2013-01-23 07:53:00,
2013-01-23 02:02:00,-16.0,-23.0,-100.00,WSW,237,1.0,5.0,69,0.00,,,-99.99,0.000000,,2013-01-23 08:02:00,
2013-01-23 02:10:00,-18.0,-25.0,-100.00,SSE,147,1.0,2.0,70,0.00,,,0.00,0.000000,,2013-01-23 08:10:00,
2013-01-23 02:33:00,-18.0,-25.0,-100.00,SSE,147,1.0,2.0,70,0.00,,,0.00,0.000000,,2013-01-23 08:33:00,
2013-01-23 02:43:00,-18.0,-25.0,-100.00,SSE,147,1.0,2.0,70,0.00,,,0.00,0.000000,,2013-01-23 08:43:00,
2013-01-23 02:53:00,-18.0,-25.0,-100.00,SSE,147,1.0,2.0,70,0.00,,,0.00,0.000000,,2013-01-23 08:53:00,
2013-01-23 03:03:00,-18.0,-25.0,-100.00,SSE,147,1.0,2.0,70,0.00,,,0.00,0.000000,,2013-01-23 09:03:00,
2013-01-23 03:10:00,-18.0,-25.0,-100.00,NNW,342,1.0,2.0,70,0.00,,,0.00,0.000000,,2013-01-23 09:10:00,
2013-01-23 03:33:00,-18.0,-25.0,-100.00,NNW,342,1.0,2.0,70,0.00,,,0.00,0.000000,,2013-01-23 09:33:00,
2013-01-23 03:43:00,-18.0,-25.0,-100.00,NNW,342,1.0,2.0,70,0.00,,,0.00,0.000000,,2013-01-23 09:43:00,
2013-01-23 03:53:00,-18.0,-25.0,-100.00,NNW,342,1.0,2.0,70,0.00,,,0.00,0.000000,,2013-01-23 09:53:00,
2013-01-23 04:03:00,-18.0,-25.0,-100.00,NNW,342,1.0,2.0,70,0.00,,,0.00,0.000000,,2013-01-23 10:03:00,
2013-01-23 04:10:00,-19.0,-26.0,-100.00,NNW,340,1.0,2.0,69,0.00,,,0.00,0.000000,,2013-01-23 10:10:00,
2013-01-23 04:33:00,-19.0,-26.0,-100.00,NNW,340,1.0,2.0,69,0.00,,,0.00,0.000000,,2013-01-23 10:33:00,
2013-01-23 04:43:00,-19.0,-26.0,-100.00,NNW,340,1.0,2.0,69,0.00,,,0.00,0.000000,,2013-01-23 10:43:00,
2013-01-23 04:53:00,-19.0,-26.0,-100.00,NNW,340,1.0,2.0,69,0.00,,,0.00,0.000000,,2013-01-23 10:53:00,
2013-01-23 05:02:00,-19.0,-26.0,-100.00,NNW,340,1.0,2.0,69,0.00,,,0.00,0.000000,,2013-01-23 11:02:00,
2013-01-23 05:10:00,-22.0,-29.0,-100.00,SE,127,1.0,2.0,67,0.00,,,0.00,0.000000,,2013-01-23 11:10:00,
2013-01-23 05:34:00,-22.0,-29.0,-100.00,SE,127,1.0,2.0,67,0.00,,,0.00,0.000000,,2013-01-23 11:34:00,
2013-01-23 05:43:00,-22.0,-29.0,-100.00,SE,127,1.0,2.0,67,0.00,,,0.00,0.000000,,2013-01-23 11:43:00,
2013-01-23 05:53:00,-22.0,-29.0,-100.00,SE,127,1.0,2.0,67,0.00,,,0.00,0.000000,,2013-01-23 11:53:00,
2013-01-23 06:03:00,-22.0,-29.0,-100.00,SE,127,1.0,2.0,67,0.00,,,0.00,0.000000,,2013-01-23 12:03:00,
2013-01-23 06:10:00,-20.0,-27.0,-100.00,SW,215,1.0,2.0,67,0.00,,,0.00,0.000000,,2013-01-23 12:10:00,
2013-01-23 06:33:00,-20.0,-27.0,-100.00,SW,215,1.0,2.0,67,0.00,,,0.00,0.000000,,2013-01-23 12:33:00,
2013-01-23 06:43:00,-20.0,-27.0,-100.00,SW,215,1.0,2.0,67,0.00,,,0.00,0.000000,,2013-01-23 12:43:00,
2013-01-23 06:53:00,-20.0,-27.0,-100.00,SW,215,1.0,2.0,67,0.00,,,0.00,0.000000,,2013-01-23 12:53:00,
2013-01-23 07:03:00,-20.0,-27.0,-100.00,SW,215,1.0,2.0,67,0.00,,,0.00,0.000000,,2013-01-23 13:03:00,
2013-01-23 07:10:00,-10.0,-17.0,-100.00,WSW,251,3.0,9.0,72,0.00,,,0.00,0.000000,,2013-01-23 13:10:00,
2013-01-23 07:33:00,-10.0,-17.0,-100.00,WSW,251,3.0,9.0,72,0.00,,,0.00,0.000000,,2013-01-23 13:33:00,
2013-01-23 07:43:00,-10.0,-17.0,-100.00,WSW,251,3.0,9.0,72,0.00,,,0.00,0.000000,,2013-01-23 13:43:00,
2013-01-23 07:53:00,-10.0,-17.0,-100.00,WSW,251,3.0,9.0,72,0.00,,,0.00,0.000000,,2013-01-23 13:53:00,
2013-01-23 08:03:00,-10.0,-17.0,-100.00,WSW,251,3.0,9.0,72,0.00,,,0.00,0.000000,,2013-01-23 14:03:00,
2013-01-23 08:10:00,-10.0,-17.0,-100.00,SW,220,2.0,7.0,71,0.00,,,0.00,9.000000,,2013-01-23 14:10:00,
2013-01-23 08:33:00,-10.0,-17.0,-100.00,SW,220,2.0,7.0,71,0.00,,,0.00,9.000000,,2013-01-23 14:33:00,
2013-01-23 08:43:00,-10.0,-17.0,-100.00,SW,220,2.0,7.0,71,0.00,,,0.00,9.000000,,2013-01-23 14:43:00,
2013-01-23 08:53:00,-10.0,-17.0,-100.00,SW,220,2.0,7.0,71,0.00,,,0.00,9.000000,,2013-01-23 14:53:00,
2013-01-23 09:03:00,-10.0,-17.0,-100.00,SW,220,2.0,7.0,71,0.00,,,0.00,9.000000,,2013-01-23 15:03:00,
2013-01-23 09:10:00,-6.0,-13.0,-100.00,WSW,249,3.0,7.0,71,0.00,,,0.00,52.000000,,2013-01-23 15:10:00,
2013-01-23 09:33:00,-6.0,-13.0,-100.00,WSW,249,3.0,7.0,71,0.00,,,0.00,52.000000,,2013-01-23 15:33:00,
2013-01-23 09:43:00,-6.0,-13.0,-100.00,WSW,249,3.0,7.0,71,0.00,,,0.00,52.000000,,2013-01-23 15:43:00,
2013-01-23 09:53:00,-6.0,-13.0,-100.00,WSW,249,3.0,7.0,71,0.00,,,0.00,52.000000,,2013-01-23 15:53:00,
2013-01-23 10:03:00,-6.0,-13.0,-100.00,WSW,249,3.0,7.0,71,0.00,,,0.00,52.000000,,2013-01-23 16:03:00,
2013-01-23 10:10:00,-2.0,-9.0,-100.00,SW,222,3.0,7.0,70,0.00,,,0.00,97.000000,,2013-01-23 16:10:00,
2013-01-23 10:33:00,-2.0,-9.0,-100.00,SW,222,3.0,7.0,70,0.00,,,0.00,97.000000,,2013-01-23 16:33:00,
2013-01-23 10:43:00,-2.0,-9.0,-100.00,SW,222,3.0,7.0,70,0.00,,,0.00,97.000000,,2013-01-23 16:43:00,
2013-01-23 10:53:00,-2.0,-9.0,-100.00,SW,222,3.0,7.0,70,0.00,,,0.00,97.000000,,2013-01-23 16:53:00,
2013-01-23 11:03:00,-2.0,-9.0,-100.00,SW,222,3.0,7.0,70,0.00,,,0.00,97.000000,,2013-01-23 17:03:00,
2013-01-23 11:10:00,3.0,-6.0,-100.00,WSW,248,3.0,9.0,64,0.00,,,0.00,158.000000,,2013-01-23 17:10:00,
2013-01-23 11:34:00,3.0,-6.0,-100.00,WSW,248,3.0,9.0,64,0.00,,,0.00,158.000000,,2013-01-23 17:34:00,
2013-01-23 11:43:00,3.0,-6.0,-100.00,WSW,248,3.0,9.0,64,0.00,,,0.00,158.000000,,2013-01-23 17:43:00,
2013-01-23 11:53:00,3.0,-6.0,-100.00,WSW,248,3.0,9.0,64,0.00,,,0.00,158.000000,,2013-01-23 17:53:00,
2013-01-23 12:03:00,3.0,-6.0,-100.00,WSW,248,3.0,9.0,64,0.00,,,0.00,158.000000,,2013-01-23 18:03:00,
2013-01-23 12:10:00,7.0,-4.0,-100.00,WNW,282,5.0,11.0,59,0.00,,,0.00,250.000000,,2013-01-23 18:10:00,
2013-01-23 12:33:00,7.0,-4.0,-100.00,WNW,282,5.0,11.0,59,0.00,,,0.00,250.000000,,2013-01-23 18:33:00,
2013-01-23 12:44:00,7.0,-4.0,-100.00,WNW,282,5.0,11.0,59,0.00,,,0.00,250.000000,,2013-01-23 18:44:00,
2013-01-23 12:53:00,7.0,-4.0,-100.00,WNW,282,5.0,11.0,59,0.00,,,0.00,250.000000,,2013-01-23 18:53:00,
2013-01-23 13:03:00,7.0,-4.0,-100.00,WNW,282,5.0,11.0,59,0.00,,,0.00,250.000000,,2013-01-23 19:03:00,
2013-01-23 13:10:00,8.0,-4.0,-100.00,West,277,5.0,10.0,58,0.00,,,0.00,238.000000,,2013-01-23 19:10:00,
2013-01-23 13:33:00,8.0,-4.0,-100.00,West,277,5.0,10.0,58,0.00,,,0.00,238.000000,,2013-01-23 19:33:00,
2013-01-23 13:43:00,8.0,-4.0,-100.00,West,277,5.0,10.0,58,0.00,,,0.00,238.000000,,2013-01-23 19:43:00,
2013-01-23 13:53:00,8.0,-4.0,-100.00,West,277,5.0,10.0,58,0.00,,,0.00,238.000000,,2013-01-23 19:53:00,
2013-01-23 14:03:00,8.0,-4.0,-100.00,West,277,5.0,10.0,58,0.00,,,0.00,238.000000,,2013-01-23 20:03:00,
2013-01-23 15:10:00,6.0,-2.0,-100.00,NNW,337,11.0,22.0,68,-99.99,,,0.00,105.000000,,2013-01-23 21:10:00,
2013-01-23 15:43:00,6.0,-2.0,-100.00,NNW,337,11.0,22.0,68,-99.99,,,0.00,105.000000,,2013-01-23 21:43:00,
2013-01-23 15:53:00,6.0,-2.0,-100.00,NNW,337,11.0,22.0,68,-99.99,,,0.00,105.000000,,2013-01-23 21:53:00,
2013-01-23 16:02:00,6.0,-2.0,-100.00,NNW,337,11.0,22.0,68,-99.99,,,0.00,105.000000,,2013-01-23 22:02:00,
2013-01-23 16:10:00,4.0,-6.0,-100.00,NNW,337,11.0,19.0,62,0.00,,,0.00,86.000000,,2013-01-23 22:10:00,
2013-01-23 17:03:00,4.0,-6.0,-100.00,NNW,337,11.0,19.0,62,0.00,,,0.00,86.000000,,2013-01-23 23:03:00,
2013-01-23 17:10:00,2.0,-8.0,-100.00,NW,325,12.0,20.0,63,0.00,,,0.00,10.000000,,2013-01-23 23:10:00,
2013-01-23 17:33:00,2.0,-8.0,-100.00,NW,325,12.0,20.0,63,0.00,,,0.00,10.000000,,2013-01-23 23:33:00,
2013-01-23 17:43:00,2.0,-8.0,-100.00,NW,325,12.0,20.0,63,0.00,,,0.00,10.000000,,2013-01-23 23:43:00,
2013-01-23 17:53:00,2.0,-8.0,-100.00,NW,325,12.0,20.0,63,0.00,,,0.00,10.000000,,2013-01-23 23:53:00,
2013-01-23 18:03:00,2.0,-8.0,-100.00,NW,325,12.0,20.0,63,0.00,,,0.00,10.000000,,2013-01-24 00:03:00,
2013-01-23 18:10:00,1.0,-6.0,-100.00,NW,325,9.0,20.0,73,0.00,,,0.00,0.000000,,2013-01-24 00:10:00,
2013-01-23 18:33:00,1.0,-6.0,-100.00,NW,325,9.0,20.0,73,0.00,,,0.00,0.000000,,2013-01-24 00:33:00,
2013-01-23 18:43:00,1.0,-6.0,-100.00,NW,325,9.0,20.0,73,0.00,,,0.00,0.000000,,2013-01-24 00:43:00,
2013-01-23 18:53:00,1.0,-6.0,-100.00,NW,325,9.0,20.0,73,0.00,,,0.00,0.000000,,2013-01-24 00:53:00,
2013-01-23 19:03:00,1.0,-6.0,-100.00,NW,325,9.0,20.0,73,0.00,,,0.00,0.000000,,2013-01-24 01:03:00,
2013-01-23 19:10:00,0.0,-6.0,-100.00,NW,320,8.0,18.0,75,0.00,,,0.00,0.000000,,2013-01-24 01:10:00,
2013-01-23 19:43:00,0.0,-6.0,-100.00,NW,320,8.0,18.0,75,0.00,,,0.00,0.000000,,2013-01-24 01:43:00,
2013-01-23 19:53:00,0.0,-6.0,-100.00,NW,320,8.0,18.0,75,0.00,,,0.00,0.000000,,2013-01-24 01:53:00,
2013-01-23 20:02:00,0.0,-6.0,-100.00,NW,320,8.0,18.0,75,0.00,,,0.00,0.000000,,2013-01-24 02:02:00,
2013-01-23 20:10:00,-1.0,-6.0,-100.00,NW,320,5.0,12.0,77,0.00,,,0.00,0.000000,,2013-01-24 02:10:00,
2013-01-23 20:33:00,-1.0,-6.0,-100.00,NW,320,5.0,12.0,77,0.00,,,0.00,0.000000,,2013-01-24 02:33:00,
2013-01-23 20:43:00,-1.0,-6.0,-100.00,NW,320,5.0,12.0,77,0.00,,,0.00,0.000000,,2013-01-24 02:43:00,
2013-01-23 20:52:00,-1.0,-6.0,-100.00,NW,320,5.0,12.0,77,0.00,,,0.00,0.000000,,2013-01-24 02:52:00,
2013-01-23 21:02:00,-1.0,-6.0,-100.00,NW,320,5.0,12.0,77,0.00,,,0.00,0.000000,,2013-01-24 03:02:00,
2013-01-23 21:10:00,-4.0,-10.0,-100.00,NW,313,3.0,8.0,76,0.00,,,0.00,0.000000,,2013-01-24 03:10:00,
2013-01-23 21:33:00,-4.0,-10.0,-100.00,NW,313,3.0,8.0,76,0.00,,,0.00,0.000000,,2013-01-24 03:33:00,
2013-01-23 21:43:00,-4.0,-10.0,-100.00,NW,313,3.0,8.0,76,0.00,,,0.00,0.000000,,2013-01-24 03:43:00,
2013-01-23 21:53:00,-4.0,-10.0,-100.00,NW,313,3.0,8.0,76,0.00,,,0.00,0.000000,,2013-01-24 03:53:00,
2013-01-23 22:02:00,-4.0,-10.0,-100.00,NW,313,3.0,8.0,76,0.00,,,0.00,0.000000,,2013-01-24 04:02:00,
2013-01-23 22:10:00,-8.0,-14.0,-100.00,West,268,1.0,5.0,75,0.00,,,0.00,0.000000,,2013-01-24 04:10:00,
2013-01-23 22:33:00,-8.0,-14.0,-100.00,West,268,1.0,5.0,75,0.00,,,0.00,0.000000,,2013-01-24 04:33:00,
2013-01-23 22:43:00,-8.0,-14.0,-100.00,West,268,1.0,5.0,75,0.00,,,0.00,0.000000,,2013-01-24 04:43:00,
2013-01-23 22:53:00,-8.0,-14.0,-100.00,West,268,1.0,5.0,75,0.00,,,0.00,0.000000,,2013-01-24 04:53:00,
2013-01-23 23:03:00,-8.0,-14.0,-100.00,West,268,1.0,5.0,75,0.00,,,0.00,0.000000,,2013-01-24 05:03:00,
2013-01-23 23:10:00,-11.0,-17.0,-100.00,WSW,251,1.0,4.0,74,0.00,,,0.00,0.000000,,2013-01-24 05:10:00,
2013-01-23 23:33:00,-11.0,-17.0,-100.00,WSW,251,1.0,4.0,74,0.00,,,0.00,0.000000,,2013-01-24 05:33:00,
2013-01-23 23:43:00,-11.0,-17.0,-100.00,WSW,251,1.0,4.0,74,0.00,,,0.00,0.000000,,2013-01-24 05:43:00,
2013-01-23 23:53:00,-11.0,-17.0,-100.00,WSW,251,1.0,4.0,74,0.00,,,0.00,0.000000,,2013-01-24 05:53:00,